Precipitable_Water
1.09 1.08 1.03 0.98 0.92 0.85 0.80 0.80 0.73 0.61 0.64 0.73 0.76 0.87 0.92 0.94 0.93 0.91 0.88 0.86 0.83 0.80 0.76 0.72 0.71 0.69 0.66 0.64 0.62 0.60 0.60 0.60 0.59 0.57 0.56 0.55 0.52 0.51
1.10 1.06 1.01 0.95 0.93 0.89 0.85 0.83 0.80 0.72 0.64 0.74 0.77 0.81 0.89 0.89 0.89 0.87 0.86 0.83 0.79 0.75 0.71 0.68 0.66 0.65 0.64 0.62 0.60 0.57 0.57 0.57 0.56 0.56 0.54 0.52 0.50 0.48
1.13 1.09 1.02 1.00 0.97 0.94 0.91 0.87 0.81 0.77 0.70 0.73 0.76 0.77 0.80 0.81 0.84 0.83 0.79 0.73 0.74 0.72 0.69 0.67 0.64 0.62 0.61 0.60 0.58 0.56 0.56 0.55 0.54 0.51 0.49 0.48 0.47 0.45
1.15 1.11 1.05 1.02 0.99 1.00 0.98 0.91 0.87 0.81 0.76 0.72 0.76 0.77 0.76 0.79 0.81 0.75 0.71 0.73 0.72 0.72 0.70 0.67 0.63 0.61 0.60 0.58 0.57 0.55 0.54 0.53 0.50 0.48 0.46 0.46 0.44 0.43
1.20 1.10 1.10 1.05 1.00 1.00 0.99 0.96 0.94 0.87 0.83 0.81 0.76 0.78 0.77 0.77 0.76 0.75 0.73 0.74 0.75 0.75 0.71 0.66 0.64 0.62 0.61 0.60 0.58 0.56 0.54 0.51 0.49 0.49 0.47 0.45 0.43 0.40
1.19 1.17 1.12 1.08 1.06 1.01 1.02 1.04 1.02 0.96 0.88 0.81 0.76 0.73 0.73 0.75 0.75 0.72 0.72 0.75 0.72 0.73 0.69 0.65 0.64 0.63 0.61 0.60 0.57 0.55 0.52 0.50 0.48 0.47 0.46 0.44 0.40 0.37
1.16 1.15 1.15 1.14 1.14 1.11 1.08 1.03 1.03 0.93 0.86 0.78 0.72 0.72 0.69 0.69 0.71 0.71 0.70 0.72 0.71 0.70 0.65 0.62 0.61 0.57 0.57 0.57 0.56 0.52 0.48 0.46 0.46 0.46 0.42 0.39 0.35 0.32
1.09 1.08 1.08 1.07 1.04 1.07 1.06 1.03 0.99 0.87 0.82 0.77 0.75 0.76 0.74 0.71 0.71 0.68 0.69 0.69 0.64 0.69 0.62 0.58 0.57 0.55 0.56 0.56 0.54 0.50 0.46 0.44 0.45 0.41 0.38 0.35 0.33 0.32
1.07 1.05 1.04 1.04 1.04 1.03 1.00 0.96 0.93 0.91 0.87 0.82 0.80 0.78 0.75 0.76 0.71 0.69 0.70 0.69 0.64 0.66 0.62 0.55 0.56 0.54 0.57 0.55 0.52 0.47 0.44 0.47 0.43 0.39 0.36 0.33 0.31 0.30
1.04 1.04 1.00 0.97 0.97 0.95 0.93 0.92 0.92 0.91 0.89 0.87 0.82 0.78 0.80 0.76 0.72 0.72 0.73 0.70 0.69 0.65 0.61 0.53 0.59 0.57 0.56 0.53 0.50 0.46 0.44 0.46 0.41 0.38 0.35 0.33 0.30 0.30
0.98 0.99 0.99 0.98 0.96 0.94 0.93 0.90 0.88 0.88 0.90 0.87 0.83 0.80 0.79 0.80 0.79 0.77 0.71 0.66 0.62 0.61 0.63 0.59 0.57 0.53 0.50 0.47 0.46 0.49 0.48 0.46 0.40 0.36 0.34 0.33 0.29 0.27
0.92 0.95 0.95 0.98 0.96 0.96 0.91 0.87 0.83 0.82 0.83 0.82 0.80 0.81 0.82 0.81 0.79 0.75 0.70 0.63 0.60 0.59 0.63 0.55 0.52 0.48 0.43 0.48 0.46 0.42 0.39 0.35 0.35 0.35 0.31 0.27 0.24 0.22
0.88 0.89 0.93 0.94 0.91 0.91 0.89 0.86 0.82 0.82 0.79 0.77 0.76 0.76 0.75 0.74 0.72 0.69 0.65 0.62 0.60 0.57 0.57 0.53 0.49 0.48 0.45 0.40 0.38 0.35 0.33 0.34 0.30 0.26 0.23 0.20 0.20 0.21
0.89 0.90 0.91 0.91 0.89 0.87 0.84 0.81 0.81 0.79 0.75 0.71 0.69 0.68 0.66 0.64 0.64 0.63 0.63 0.61 0.59 0.54 0.55 0.53 0.48 0.43 0.37 0.32 0.29 0.31 0.30 0.26 0.22 0.20 0.18 0.17 0.18 0.18
0.87 0.88 0.87 0.86 0.83 0.80 0.79 0.79 0.77 0.74 0.70 0.66 0.63 0.63 0.63 0.63 0.63 0.61 0.59 0.57 0.55 0.52 0.51 0.48 0.42 0.38 0.34 0.30 0.27 0.24 0.21 0.20 0.19 0.17 0.16 0.15 0.14 0.15
0.82 0.82 0.81 0.78 0.76 0.76 0.74 0.72 0.71 0.69 0.66 0.63 0.61 0.61 0.61 0.59 0.57 0.55 0.50 0.48 0.45 0.44 0.43 0.41 0.36 0.32 0.29 0.27 0.24 0.21 0.20 0.16 0.16 0.15 0.16 0.15 0.16 0.17
0.75 0.74 0.71 0.69 0.67 0.66 0.66 0.66 0.65 0.64 0.61 0.60 0.58 0.56 0.55 0.54 0.51 0.50 0.47 0.45 0.40 0.37 0.34 0.34 0.33 0.31 0.28 0.25 0.21 0.19 0.16 0.16 0.16 0.16 0.16 0.15 0.16 0.16
0.68 0.64 0.63 0.63 0.61 0.62 0.61 0.60 0.59 0.58 0.57 0.56 0.54 0.53 0.50 0.49 0.48 0.47 0.44 0.38 0.35 0.33 0.32 0.31 0.30 0.28 0.26 0.24 0.23 0.18 0.17 0.16 0.17 0.17 0.17 0.15 0.15 0.16
0.60 0.59 0.59 0.58 0.57 0.57 0.57 0.56 0.54 0.54 0.55 0.53 0.51 0.50 0.48 0.47 0.44 0.39 0.37 0.36 0.34 0.32 0.32 0.31 0.29 0.26 0.22 0.19 0.20 0.22 0.17 0.17 0.17 0.16 0.17 0.16 0.15 0.16
0.57 0.56 0.55 0.55 0.53 0.52 0.53 0.52 0.51 0.51 0.51 0.50 0.48 0.47 0.43 0.40 0.39 0.37 0.36 0.34 0.32 0.31 0.30 0.29 0.28 0.26 0.22 0.19 0.18 0.18 0.20 0.18 0.17 0.16 0.16 0.17 0.17 0.18
0.52 0.52 0.53 0.52 0.51 0.50 0.50 0.50 0.49 0.48 0.48 0.47 0.44 0.42 0.41 0.40 0.38 0.36 0.34 0.32 0.30 0.29 0.27 0.27 0.28 0.29 0.26 0.24 0.19 0.17 0.19 0.21 0.21 0.18 0.18 0.16 0.14 0.15
0.48 0.49 0.50 0.50 0.49 0.48 0.48 0.48 0.47 0.46 0.45 0.44 0.42 0.41 0.39 0.37 0.34 0.32 0.32 0.31 0.30 0.29 0.28 0.28 0.28 0.26 0.24 0.21 0.18 0.17 0.17 0.18 0.19 0.19 0.19 0.18 0.17 0.14
0.46 0.47 0.47 0.47 0.47 0.47 0.46 0.46 0.45 0.44 0.43 0.41 0.39 0.37 0.35 0.33 0.34 0.33 0.32 0.30 0.29 0.28 0.27 0.26 0.25 0.25 0.21 0.19 0.17 0.17 0.16 0.16 0.16 0.15 0.16 0.19 0.20 0.20
Wind_Speed
33 31 29 28 27 25 24 25 23 22 23 23 23 24 24 23 23 23 23 23 22 21 21 21 21 22 22 23 23 22 23 23 24 24 24 25 26 27
35 34 32 30 29 28 27 27 26 24 24 25 26 25 26 26 26 25 25 24 24 24 24 24 24 24 24 24 24 24 25 25 26 26 27 27 28 29
37 36 35 34 32 31 30 30 29 27 26 26 27 27 27 27 27 27 26 26 25 26 26 26 26 26 26 26 26 27 27 27 28 28 29 29 30 31
40 39 39 37 36 35 34 33 32 31 29 28 29 29 30 29 29 28 27 27 28 28 28 28 28 28 28 28 28 29 29 29 30 30 31 31 32 33
41 41 41 41 40 38 37 36 34 34 32 31 30 31 31 31 30 29 29 29 30 30 30 30 30 30 30 31 31 31 30 31 32 32 33 33 34 34
44 43 43 44 43 41 41 38 37 37 36 34 32 33 33 32 32 31 32 32 32 32 32 32 32 32 32 32 33 32 33 33 34 35 34 34 35 35
42 42 43 41 38 39 39 38 38 35 35 34 34 33 34 34 35 35 34 34 34 34 34 34 34 34 34 34 34 34 34 35 35 35 35 36 36 37
42 41 40 39 38 39 37 38 38 37 35 35 35 36 36 36 36 36 35 35 36 37 36 35 35 36 35 35 35 36 36 36 36 36 37 37 37 37
45 42 41 41 39 39 38 37 37 38 39 39 37 36 35 37 36 35 36 36 36 36 37 37 37 37 37 37 36 36 37 36 37 37 37 36 36 37
46 44 43 42 41 40 40 38 38 38 38 37 37 37 36 35 35 35 35 35 35 35 36 35 36 37 36 36 36 37 37 37 38 37 37 36 37 38
46 46 45 44 43 41 39 38 37 37 36 36 36 36 36 36 37 36 36 36 35 36 37 36 36 36 36 37 38 38 38 37 37 37 36 37 38 38
45 44 44 43 41 41 40 38 37 37 37 36 35 36 36 37 37 38 37 36 36 36 36 36 35 35 36 37 37 36 36 35 36 37 37 38 38 39
45 44 43 44 41 41 40 40 39 38 37 36 36 36 36 36 36 36 37 37 36 35 34 34 34 35 35 34 34 35 35 36 37 37 38 39 39 39
46 45 44 44 42 41 40 40 38 37 37 37 36 35 34 34 34 33 33 33 34 34 33 34 33 34 33 33 34 34 35 36 37 38 38 39 39 38
46 45 44 43 41 41 40 39 38 38 37 36 35 35 34 34 33 32 32 32 32 32 32 33 32 33 33 34 34 35 36 35 38 37 36 38 40 40
45 44 44 43 42 41 40 40 39 38 37 37 35 34 33 33 32 32 31 31 31 31 32 32 33 33 34 35 35 36 36 35 36 38 40 40 40 41
45 45 45 44 43 42 40 38 38 37 36 35 34 33 32 32 31 31 31 31 31 32 32 32 33 33 34 35 36 37 37 37 38 39 39 40 40 41
44 44 42 42 40 39 38 38 37 36 35 34 33 32 31 31 31 32 31 32 32 32 32 33 34 34 35 36 38 38 37 38 39 39 40 41 42 43
45 46 44 43 40 39 38 37 36 35 35 33 33 32 32 32 32 32 32 32 32 33 34 34 34 35 35 36 37 38 38 39 39 40 42 43 45 45
43 43 42 40 39 38 37 36 35 34 33 33 33 33 32 31 31 32 32 33 33 33 34 34 35 37 37 37 37 37 39 40 41 43 44 45 47 48
40 39 39 38 37 36 35 34 34 34 33 33 32 32 32 32 32 32 33 33 34 34 35 36 37 38 38 39 39 40 41 43 44 45 45 46 47 48
38 37 37 36 36 35 34 34 33 31 31 31 31 31 32 32 32 33 33 34 35 35 36 37 37 38 39 41 42 43 43 44 44 45 47 47 48 47
34 35 35 35 34 34 33 32 32 32 32 31 32 32 32 33 33 34 34 35 35 36 37 38 38 39 41 42 43 44 44 45 45 46 46 47 48 48
Wind_Direction
232 234 236 238 240 243 244 242 247 251 252 254 256 255 257 257 261 265 267 268 268 272 275 280 282 285 289 292 294 295 297 299 300 302 304 306 308 308
234 235 237 238 240 243 246 246 249 253 256 257 256 258 256 258 262 265 265 265 267 270 274 278 281 284 287 290 291 292 295 297 298 299 301 302 304 306
236 236 237 240 242 244 247 248 249 252 256 259 259 258 257 259 261 263 262 265 265 270 273 276 278 282 284 287 289 290 292 294 295 297 298 300 301 304
237 239 240 241 243 244 247 248 250 251 257 258 258 258 258 259 260 259 261 263 267 270 272 274 276 280 282 285 287 288 290 291 293 295 297 298 299 301
239 242 241 243 244 245 247 248 250 252 255 259 258 258 260 258 257 259 260 263 267 269 271 273 275 278 281 283 284 286 287 289 291 294 296 296 298 299
241 242 247 242 246 246 247 247 249 253 253 254 258 258 256 256 257 257 261 266 267 267 270 272 274 277 279 281 282 284 286 288 290 293 294 295 296 298
245 241 243 247 246 246 242 249 245 250 250 251 255 258 256 255 256 259 262 265 267 268 270 271 274 276 279 280 281 284 286 287 290 292 293 294 296 297
242 243 244 245 245 241 244 245 246 249 248 252 256 258 255 256 257 258 262 264 267 267 269 271 273 275 278 279 281 284 286 287 288 290 291 293 294 295
242 243 244 244 244 242 245 246 248 247 252 254 255 257 255 256 255 258 263 264 266 268 269 271 272 275 276 278 280 283 284 284 286 289 291 291 293 295
243 244 245 243 243 245 246 248 249 252 253 255 254 256 258 254 256 260 263 265 267 268 268 270 272 274 275 276 278 282 283 283 286 288 290 291 293 295
243 245 244 245 244 243 244 247 250 251 254 254 257 257 256 257 259 262 263 263 268 269 269 271 272 273 275 277 279 281 283 284 286 287 289 291 292 294
243 244 245 238 242 243 245 247 248 252 252 255 256 257 258 259 260 261 263 263 267 271 269 269 272 274 277 278 279 280 282 284 286 287 289 291 293 294
240 241 237 241 245 243 245 247 250 251 252 254 257 259 259 260 261 261 263 263 265 269 269 269 272 274 277 281 281 282 283 285 287 288 290 291 292 294
240 241 240 239 240 242 245 248 247 249 253 254 255 257 258 259 260 261 262 263 264 268 268 270 274 274 276 281 282 284 284 286 288 289 290 291 292 293
240 241 237 234 239 242 245 245 247 250 251 253 255 257 258 258 258 259 261 264 265 267 268 270 272 275 277 279 282 284 287 287 289 289 289 292 293 294
237 237 232 236 241 244 245 246 249 248 250 252 253 255 255 256 257 258 261 262 265 267 269 271 273 276 278 280 282 284 285 287 288 290 291 292 293 294
238 236 236 237 240 242 242 244 245 247 248 250 250 251 251 253 255 256 260 262 265 267 269 272 274 276 278 281 283 285 286 286 288 289 291 292 293 294
235 229 234 232 237 236 238 241 243 244 246 246 247 248 251 252 254 257 261 263 265 267 269 272 275 278 280 282 282 284 285 286 288 289 291 292 294 295
233 233 233 233 236 237 237 238 239 241 243 243 245 248 250 253 255 257 259 262 266 269 271 274 276 277 280 282 284 283 285 287 288 290 291 293 295 296
230 229 230 232 233 233 233 234 235 238 241 243 246 248 250 252 254 256 259 263 266 270 272 275 276 278 279 282 284 285 285 287 289 291 292 293 294 296
225 227 228 228 229 230 231 233 236 238 241 242 244 246 249 251 254 258 261 265 268 271 273 276 277 278 280 282 284 285 286 288 289 290 292 294 295 296
225 225 225 226 228 229 231 233 234 236 238 241 244 248 250 253 257 260 264 267 270 272 274 277 278 280 281 282 284 286 288 289 290 291 292 293 295 296
223 224 225 226 227 228 230 232 234 238 241 244 247 250 254 257 260 263 266 268 271 273 275 278 279 281 282 283 285 287 288 290 291 292 293 294 295 296